Regional Weather Roundup
Issued by NWS

Home | Current Version | Previous Version | Graphics & Text | Print | Product List | Glossary On
Versions: 1 2 3 4 5 6 7 8 9 10 11 12 13 14 15 16 17 18 19 20 21 22 23 24 25 26 27 28 29 30 31 32 33 34 35 36 37 38 39 40 41 42 43 44 45 46 47 48 49 50
000
ASUS43 KLOT 071203
RWRIL

ILLINOIS REGIONAL WEATHER ROUNDUP
NATIONAL WEATHER SERVICE CHICAGO/ROMEOVILLE IL
600 AM CST WED DEC 07 2016

NOTE: "FAIR" INDICATES FEW OR NO CLOUDS BELOW 12,000 FEET WITH NO
SIGNIFICANT WEATHER AND/OR OBSTRUCTIONS TO VISIBILITY.

* THESE STATIONS ARE NOT UNDER NWS QUALITY CONTROL. THEY ALSO MAY NOT
  REPORT WEATHER SUCH AS PRECIPITATION OR FOG.

ILZ001-002-007-009-015-016-024-071300-
NORTHWEST ILLINOIS

CITY           SKY/WX    TMP DP  RH WIND       PRES   REMARKS
MOLINE         PTCLDY    25  15  66 W9        30.11R WCI  15
6HR MIN TEMP:  25; 6HR MAX TEMP:  28;

STERLING*      MOCLDY    23  18  81 W17       30.09R WCI   9
$$

ILZ003-004-008-010-011-017-018-071300-
NORTH CENTRAL ILLINOIS

CITY           SKY/WX    TMP DP  RH WIND       PRES   REMARKS
ROCKFORD       CLOUDY    23  15  71 W14       30.07R WCI  11
6HR MIN TEMP:  23; 6HR MAX TEMP:  25;

FREEPORT*      MOCLDY    20  15  78 W10G20    30.08R WCI   9
ROCHELLE*      MOCLDY    23  17  77 W16G25    30.07R WCI   9
$$

ILZ005-006-012>014-019>023-071300-
NORTHEAST ILLINOIS

CITY           SKY/WX    TMP DP  RH WIND       PRES   REMARKS
CHICAGO-OHARE  CLOUDY    25  17  72 W12       30.03S WCI  14
6HR MIN TEMP:  25; 6HR MAX TEMP:  26;

CHICAGO-MIDWAY CLOUDY    27  17  66 W12       30.05S WCI  17
6HR MIN TEMP:  27; 6HR MAX TEMP:  28;

AURORA         PTCLDY    25  18  74 W17       30.06S WCI  12
6HR MIN TEMP:  25; 6HR MAX TEMP:  27;

LANSING*       CLOUDY    27  21  78 W13G20    30.08S WCI  16
WAUKEGAN       MOCLDY    24  16  71 W8G20     29.99R WCI  15
6HR MIN TEMP:  24; 6HR MAX TEMP:  27;

DUPAGE AIRPORT PTCLDY    24  17  74 W14       30.04S WCI  12
6HR MIN TEMP:  24; 6HR MAX TEMP:  26;

WHEELING       MOCLDY    25  15  66 W15G22    30.04S WCI  13
6HR MIN TEMP:  25; 6HR MAX TEMP:  27;

NORTHERLY ISL    N/A     27  18  69 W10         N/A  WCI  17
$$

LMZ740>746-071300-
SOUTHERN LAKE MICHIGAN

STATION/POSITION SKY/WX   TEMP    WIND        PRES    VSBY  WAVE
                          AIR SEA DIR/SP/G                  HT/PER
                          (F)     (DEG/KT/KT) (MB)    (MI)  (FT/S)
HARRISON CRIB              29     260/ 16/ 18   N/A
BURNHAM HARBOR             27     240/ 11/ 15   N/A
CALUMET HARBOR             27     240/  7/ 13 1017.4R
BURNS HARBOR               30     250/ 19/ 24 1018.6R
MICHIGAN CITY              31     230/ 26/ 29   N/A
$$

ILZ025>027-034>036-040-047-049-050-058-095>099-071300-
WEST-CENTRAL ILLINOIS

CITY           SKY/WX    TMP DP  RH WIND       PRES   REMARKS
QUINCY         CLOUDY    29  17  61 NW9       30.14F WCI  20
GALESBURG*     CLOUDY    26  18  74 W13       30.12R WCI  14
MACOMB*        CLOUDY    28  19  69 W7        30.17S WCI  20
JACKSONVILLE*  CLOUDY    28  19  69 CALM      30.14F
$$

ILZ028>032-037-038-041>044-048-051>054-059>061-071300-
CENTRAL ILLINOIS

CITY           SKY/WX    TMP DP  RH WIND       PRES   REMARKS
BLOOMINGTON    CLOUDY    27  19  72 W16       30.12R WCI  15
DECATUR        PTCLDY    29  18  63 W7        30.16R WCI  22
PEORIA         CLOUDY    28  17  63 W8        30.14R WCI  20
6HR MIN TEMP:  28; 6HR MAX TEMP:  30;

SPRINGFIELD    CLOUDY    30  19  63 W5        30.15F WCI  25
6HR MIN TEMP:  30; 6HR MAX TEMP:  33;

TAYLORVILLE    NOT AVBL
$$

ILZ033-039-045-046-055>057-062-063-071300-
EAST-CENTRAL ILLINOIS

CITY           SKY/WX    TMP DP  RH WIND       PRES   REMARKS
CHAMPAIGN      MOCLDY    29  20  69 W12       30.14R WCI  19
MATTOON        PTCLDY    28  20  71 W7        30.15R WCI  21
PARIS*         CLOUDY    28  25  87 W7        30.15S WCI  21
$$

ILZ079-100>102-071300-
SOUTHWEST ILLINOIS

CITY           SKY/WX    TMP DP  RH WIND       PRES   REMARKS
BELLEVILLE     MOCLDY    27  22  82 CALM      30.18S
CAHOKIA*       MOCLDY    31  18  58 SW3       30.19F
SPARTA*        CLEAR     29  22  75 CALM      30.21S
$$

ILZ064>066-069>071-074>076-080>082-084>086-088>090-092>094-071300-
SOUTH-CENTRAL ILLINOIS

CITY           SKY/WX    TMP DP  RH WIND       PRES   REMARKS
CARBONDALE     CLEAR     29  25  85 CALM      30.21R
6HR MIN TEMP:  29; 6HR MAX TEMP:  35;

CAIRO*         PTCLDY    32  25  74 N7        30.20R WCI  26
CENTRALIA*     PTCLDY    29  24  82 CALM      30.19S
SALEM*         CLEAR     29  23  76 CALM      30.19S
$$

ILZ067-068-072-073-078-083-087-091-071300-
SOUTHEAST ILLINOIS

CITY           SKY/WX    TMP DP  RH WIND       PRES   REMARKS
LAWRENCEVILLE  PTCLDY    28  22  78 W6        30.19R WCI  22
HARRISBURG*    CLEAR     31  26  81 CALM      30.21R
ROBINSON*      PTCLDY    26  21  80 W6        30.19R WCI  20
CARMI*         PTCLDY    31  28  88 CALM      30.19S
$$

ABBREVIATIONS USED IN REMARKS
   TC - TEMPERATURE IN CELSIUS
  WCI - WIND CHILL INDEX
   HX - HEAT INDEX
  VSB - VISIBILITY
$$





USA.gov is the U.S. government's official web portal to all federal, state and local government web resources and services.